Index of /20260412/WXO-DD/model_gdps/15km/12/210
Name Last modified Size Description
Parent Directory -
20260412T12Z_MSC_GDPS_AbsoluteVorticity_IsbL-0200_LatLon0.15_PT210H.grib2 2026-04-12 17:00 1.5M
20260412T12Z_MSC_GDPS_AbsoluteVorticity_IsbL-0250_LatLon0.15_PT210H.grib2 2026-04-12 17:00 1.3M
20260412T12Z_MSC_GDPS_AbsoluteVorticity_IsbL-0500_LatLon0.15_PT210H.grib2 2026-04-12 17:00 1.2M
20260412T12Z_MSC_GDPS_AbsoluteVorticity_IsbL-0700_LatLon0.15_PT210H.grib2 2026-04-12 17:00 1.3M
20260412T12Z_MSC_GDPS_AbsoluteVorticity_IsbL-0850_LatLon0.15_PT210H.grib2 2026-04-12 17:00 1.6M
20260412T12Z_MSC_GDPS_AirTemp-Max_AGL-2m_LatLon0.15_PT210H.grib2 2026-04-12 17:00 749K
20260412T12Z_MSC_GDPS_AirTemp-Min_AGL-2m_LatLon0.15_PT210H.grib2 2026-04-12 17:00 792K
20260412T12Z_MSC_GDPS_AirTemp_AGL-120m_LatLon0.15_PT210H.grib2 2026-04-12 17:00 907K
20260412T12Z_MSC_GDPS_AirTemp_AGL-2m_LatLon0.15_PT210H.grib2 2026-04-12 17:00 1.0M
20260412T12Z_MSC_GDPS_AirTemp_AGL-40m_LatLon0.15_PT210H.grib2 2026-04-12 17:00 808K
20260412T12Z_MSC_GDPS_AirTemp_AGL-80m_LatLon0.15_PT210H.grib2 2026-04-12 17:00 916K
20260412T12Z_MSC_GDPS_AirTemp_IsbL-0001_LatLon0.15_PT210H.grib2 2026-04-12 17:00 645K
20260412T12Z_MSC_GDPS_AirTemp_IsbL-0005_LatLon0.15_PT210H.grib2 2026-04-12 17:00 681K
20260412T12Z_MSC_GDPS_AirTemp_IsbL-0010_LatLon0.15_PT210H.grib2 2026-04-12 17:00 752K
20260412T12Z_MSC_GDPS_AirTemp_IsbL-0020_LatLon0.15_PT210H.grib2 2026-04-12 17:00 695K
20260412T12Z_MSC_GDPS_AirTemp_IsbL-0030_LatLon0.15_PT210H.grib2 2026-04-12 17:00 748K
20260412T12Z_MSC_GDPS_AirTemp_IsbL-0050_LatLon0.15_PT210H.grib2 2026-04-12 17:00 812K
20260412T12Z_MSC_GDPS_AirTemp_IsbL-0100_LatLon0.15_PT210H.grib2 2026-04-12 17:00 950K
20260412T12Z_MSC_GDPS_AirTemp_IsbL-0150_LatLon0.15_PT210H.grib2 2026-04-12 17:00 967K
20260412T12Z_MSC_GDPS_AirTemp_IsbL-0175_LatLon0.15_PT210H.grib2 2026-04-12 17:00 956K
20260412T12Z_MSC_GDPS_AirTemp_IsbL-0200_LatLon0.15_PT210H.grib2 2026-04-12 17:00 964K
20260412T12Z_MSC_GDPS_AirTemp_IsbL-0225_LatLon0.15_PT210H.grib2 2026-04-12 17:00 962K
20260412T12Z_MSC_GDPS_AirTemp_IsbL-0250_LatLon0.15_PT210H.grib2 2026-04-12 17:00 1.0M
20260412T12Z_MSC_GDPS_AirTemp_IsbL-0275_LatLon0.15_PT210H.grib2 2026-04-12 17:00 1.0M
20260412T12Z_MSC_GDPS_AirTemp_IsbL-0300_LatLon0.15_PT210H.grib2 2026-04-12 17:00 1.0M
20260412T12Z_MSC_GDPS_AirTemp_IsbL-0350_LatLon0.15_PT210H.grib2 2026-04-12 17:00 920K
20260412T12Z_MSC_GDPS_AirTemp_IsbL-0400_LatLon0.15_PT210H.grib2 2026-04-12 17:00 935K
20260412T12Z_MSC_GDPS_AirTemp_IsbL-0450_LatLon0.15_PT210H.grib2 2026-04-12 17:00 957K
20260412T12Z_MSC_GDPS_AirTemp_IsbL-0500_LatLon0.15_PT210H.grib2 2026-04-12 17:00 1.0M
20260412T12Z_MSC_GDPS_AirTemp_IsbL-0550_LatLon0.15_PT210H.grib2 2026-04-12 17:00 1.0M
20260412T12Z_MSC_GDPS_AirTemp_IsbL-0600_LatLon0.15_PT210H.grib2 2026-04-12 17:00 889K
20260412T12Z_MSC_GDPS_AirTemp_IsbL-0650_LatLon0.15_PT210H.grib2 2026-04-12 17:00 919K
20260412T12Z_MSC_GDPS_AirTemp_IsbL-0700_LatLon0.15_PT210H.grib2 2026-04-12 17:00 956K
20260412T12Z_MSC_GDPS_AirTemp_IsbL-0750_LatLon0.15_PT210H.grib2 2026-04-12 17:00 1.0M
20260412T12Z_MSC_GDPS_AirTemp_IsbL-0800_LatLon0.15_PT210H.grib2 2026-04-12 17:00 1.1M
20260412T12Z_MSC_GDPS_AirTemp_IsbL-0850_LatLon0.15_PT210H.grib2 2026-04-12 17:00 1.1M
20260412T12Z_MSC_GDPS_AirTemp_IsbL-0875_LatLon0.15_PT210H.grib2 2026-04-12 17:00 1.2M
20260412T12Z_MSC_GDPS_AirTemp_IsbL-0900_LatLon0.15_PT210H.grib2 2026-04-12 17:00 1.2M
20260412T12Z_MSC_GDPS_AirTemp_IsbL-0925_LatLon0.15_PT210H.grib2 2026-04-12 17:00 1.1M
20260412T12Z_MSC_GDPS_AirTemp_IsbL-0950_LatLon0.15_PT210H.grib2 2026-04-12 17:00 1.1M
20260412T12Z_MSC_GDPS_AirTemp_IsbL-0970_LatLon0.15_PT210H.grib2 2026-04-12 17:00 1.1M
20260412T12Z_MSC_GDPS_AirTemp_IsbL-0985_LatLon0.15_PT210H.grib2 2026-04-12 17:00 1.1M
20260412T12Z_MSC_GDPS_AirTemp_IsbL-1000_LatLon0.15_PT210H.grib2 2026-04-12 17:00 1.1M
20260412T12Z_MSC_GDPS_AirTemp_IsbL-1015_LatLon0.15_PT210H.grib2 2026-04-12 17:00 1.1M
20260412T12Z_MSC_GDPS_Albedo_Sfc_LatLon0.15_PT210H.grib2 2026-04-12 17:00 246K
20260412T12Z_MSC_GDPS_CAPE_Sfc_LatLon0.15_PT210H.grib2 2026-04-12 17:00 4.0M
20260412T12Z_MSC_GDPS_CIN_Sfc_LatLon0.15_PT210H.grib2 2026-04-12 17:00 2.9M
20260412T12Z_MSC_GDPS_CloudWater_EAtm_LatLon0.15_PT210H.grib2 2026-04-12 17:00 531K
20260412T12Z_MSC_GDPS_ConvectivePrecip-Accum_Sfc_LatLon0.15_PT210H.grib2 2026-04-12 17:00 3.9M
20260412T12Z_MSC_GDPS_DewPointDepression_AGL-2m_LatLon0.15_PT210H.grib2 2026-04-12 17:00 753K
20260412T12Z_MSC_GDPS_DewPointDepression_IsbL-0010_LatLon0.15_PT210H.grib2 2026-04-12 17:00 16K
20260412T12Z_MSC_GDPS_DewPointDepression_IsbL-0020_LatLon0.15_PT210H.grib2 2026-04-12 17:00 65K
20260412T12Z_MSC_GDPS_DewPointDepression_IsbL-0030_LatLon0.15_PT210H.grib2 2026-04-12 17:00 75K
20260412T12Z_MSC_GDPS_DewPointDepression_IsbL-0050_LatLon0.15_PT210H.grib2 2026-04-12 17:00 365K
20260412T12Z_MSC_GDPS_DewPointDepression_IsbL-0100_LatLon0.15_PT210H.grib2 2026-04-12 17:00 373K
20260412T12Z_MSC_GDPS_DewPointDepression_IsbL-0150_LatLon0.15_PT210H.grib2 2026-04-12 17:00 460K
20260412T12Z_MSC_GDPS_DewPointDepression_IsbL-0175_LatLon0.15_PT210H.grib2 2026-04-12 17:00 541K
20260412T12Z_MSC_GDPS_DewPointDepression_IsbL-0200_LatLon0.15_PT210H.grib2 2026-04-12 17:00 623K
20260412T12Z_MSC_GDPS_DewPointDepression_IsbL-0225_LatLon0.15_PT210H.grib2 2026-04-12 17:00 757K
20260412T12Z_MSC_GDPS_DewPointDepression_IsbL-0250_LatLon0.15_PT210H.grib2 2026-04-12 17:00 854K
20260412T12Z_MSC_GDPS_DewPointDepression_IsbL-0275_LatLon0.15_PT210H.grib2 2026-04-12 17:00 868K
20260412T12Z_MSC_GDPS_DewPointDepression_IsbL-0300_LatLon0.15_PT210H.grib2 2026-04-12 17:00 906K
20260412T12Z_MSC_GDPS_DewPointDepression_IsbL-0350_LatLon0.15_PT210H.grib2 2026-04-12 17:00 943K
20260412T12Z_MSC_GDPS_DewPointDepression_IsbL-0400_LatLon0.15_PT210H.grib2 2026-04-12 17:00 1.0M
20260412T12Z_MSC_GDPS_DewPointDepression_IsbL-0450_LatLon0.15_PT210H.grib2 2026-04-12 17:00 1.0M
20260412T12Z_MSC_GDPS_DewPointDepression_IsbL-0500_LatLon0.15_PT210H.grib2 2026-04-12 17:00 1.0M
20260412T12Z_MSC_GDPS_DewPointDepression_IsbL-0550_LatLon0.15_PT210H.grib2 2026-04-12 17:00 1.0M
20260412T12Z_MSC_GDPS_DewPointDepression_IsbL-0600_LatLon0.15_PT210H.grib2 2026-04-12 17:00 1.1M
20260412T12Z_MSC_GDPS_DewPointDepression_IsbL-0650_LatLon0.15_PT210H.grib2 2026-04-12 17:00 1.1M
20260412T12Z_MSC_GDPS_DewPointDepression_IsbL-0700_LatLon0.15_PT210H.grib2 2026-04-12 17:00 1.1M
20260412T12Z_MSC_GDPS_DewPointDepression_IsbL-0750_LatLon0.15_PT210H.grib2 2026-04-12 17:00 1.1M
20260412T12Z_MSC_GDPS_DewPointDepression_IsbL-0800_LatLon0.15_PT210H.grib2 2026-04-12 17:00 1.2M
20260412T12Z_MSC_GDPS_DewPointDepression_IsbL-0850_LatLon0.15_PT210H.grib2 2026-04-12 17:00 1.2M
20260412T12Z_MSC_GDPS_DewPointDepression_IsbL-0875_LatLon0.15_PT210H.grib2 2026-04-12 17:00 1.1M
20260412T12Z_MSC_GDPS_DewPointDepression_IsbL-0900_LatLon0.15_PT210H.grib2 2026-04-12 17:00 1.1M
20260412T12Z_MSC_GDPS_DewPointDepression_IsbL-0925_LatLon0.15_PT210H.grib2 2026-04-12 17:00 1.0M
20260412T12Z_MSC_GDPS_DewPointDepression_IsbL-0950_LatLon0.15_PT210H.grib2 2026-04-12 17:00 1.0M
20260412T12Z_MSC_GDPS_DewPointDepression_IsbL-0970_LatLon0.15_PT210H.grib2 2026-04-12 17:00 1.0M
20260412T12Z_MSC_GDPS_DewPointDepression_IsbL-0985_LatLon0.15_PT210H.grib2 2026-04-12 17:00 1.0M
20260412T12Z_MSC_GDPS_DewPointDepression_IsbL-1000_LatLon0.15_PT210H.grib2 2026-04-12 17:00 1.0M
20260412T12Z_MSC_GDPS_DewPointDepression_IsbL-1015_LatLon0.15_PT210H.grib2 2026-04-12 17:00 908K
20260412T12Z_MSC_GDPS_DewPoint_AGL-2m_LatLon0.15_PT210H.grib2 2026-04-12 17:00 612K
20260412T12Z_MSC_GDPS_DownwardLongwaveRadiationFlux-Accum_Sfc_LatLon0.15_PT210H.grib2 2026-04-12 17:00 720K
20260412T12Z_MSC_GDPS_DownwardShortwaveRadiationFlux-Accum_NTAtm_LatLon0.15_PT210H.grib2 2026-04-12 17:00 279K
20260412T12Z_MSC_GDPS_DownwardShortwaveRadiationFlux-Accum_Sfc_LatLon0.15_PT210H.grib2 2026-04-12 17:00 914K
20260412T12Z_MSC_GDPS_FreezingRain-Accum12h_Sfc_LatLon0.15_PT210H.grib2 2026-04-12 17:00 109K
20260412T12Z_MSC_GDPS_FreezingRain-Accum24h_Sfc_LatLon0.15_PT210H.grib2 2026-04-12 17:00 160K
20260412T12Z_MSC_GDPS_FreezingRain-Accum6h_Sfc_LatLon0.15_PT210H.grib2 2026-04-12 17:00 84K
20260412T12Z_MSC_GDPS_FreezingRain-Accum_Sfc_LatLon0.15_PT210H.grib2 2026-04-12 17:00 364K
20260412T12Z_MSC_GDPS_GeopotentialHeight_IsbL-0001_LatLon0.15_PT210H.grib2 2026-04-12 17:00 521K
20260412T12Z_MSC_GDPS_GeopotentialHeight_IsbL-0005_LatLon0.15_PT210H.grib2 2026-04-12 17:00 494K
20260412T12Z_MSC_GDPS_GeopotentialHeight_IsbL-0010_LatLon0.15_PT210H.grib2 2026-04-12 17:00 427K
20260412T12Z_MSC_GDPS_GeopotentialHeight_IsbL-0020_LatLon0.15_PT210H.grib2 2026-04-12 17:00 574K
20260412T12Z_MSC_GDPS_GeopotentialHeight_IsbL-0030_LatLon0.15_PT210H.grib2 2026-04-12 17:00 580K
20260412T12Z_MSC_GDPS_GeopotentialHeight_IsbL-0050_LatLon0.15_PT210H.grib2 2026-04-12 17:00 580K
20260412T12Z_MSC_GDPS_GeopotentialHeight_IsbL-0100_LatLon0.15_PT210H.grib2 2026-04-12 17:00 619K
20260412T12Z_MSC_GDPS_GeopotentialHeight_IsbL-0150_LatLon0.15_PT210H.grib2 2026-04-12 17:00 633K
20260412T12Z_MSC_GDPS_GeopotentialHeight_IsbL-0175_LatLon0.15_PT210H.grib2 2026-04-12 17:00 636K
20260412T12Z_MSC_GDPS_GeopotentialHeight_IsbL-0200_LatLon0.15_PT210H.grib2 2026-04-12 17:00 637K
20260412T12Z_MSC_GDPS_GeopotentialHeight_IsbL-0225_LatLon0.15_PT210H.grib2 2026-04-12 17:00 638K
20260412T12Z_MSC_GDPS_GeopotentialHeight_IsbL-0250_LatLon0.15_PT210H.grib2 2026-04-12 17:00 639K
20260412T12Z_MSC_GDPS_GeopotentialHeight_IsbL-0275_LatLon0.15_PT210H.grib2 2026-04-12 17:00 640K
20260412T12Z_MSC_GDPS_GeopotentialHeight_IsbL-0300_LatLon0.15_PT210H.grib2 2026-04-12 17:00 640K
20260412T12Z_MSC_GDPS_GeopotentialHeight_IsbL-0350_LatLon0.15_PT210H.grib2 2026-04-12 17:00 629K
20260412T12Z_MSC_GDPS_GeopotentialHeight_IsbL-0400_LatLon0.15_PT210H.grib2 2026-04-12 17:00 622K
20260412T12Z_MSC_GDPS_GeopotentialHeight_IsbL-0450_LatLon0.15_PT210H.grib2 2026-04-12 17:00 543K
20260412T12Z_MSC_GDPS_GeopotentialHeight_IsbL-0500_LatLon0.15_PT210H.grib2 2026-04-12 17:00 532K
20260412T12Z_MSC_GDPS_GeopotentialHeight_IsbL-0550_LatLon0.15_PT210H.grib2 2026-04-12 17:00 692K
20260412T12Z_MSC_GDPS_GeopotentialHeight_IsbL-0600_LatLon0.15_PT210H.grib2 2026-04-12 17:00 682K
20260412T12Z_MSC_GDPS_GeopotentialHeight_IsbL-0650_LatLon0.15_PT210H.grib2 2026-04-12 17:00 681K
20260412T12Z_MSC_GDPS_GeopotentialHeight_IsbL-0700_LatLon0.15_PT210H.grib2 2026-04-12 17:00 683K
20260412T12Z_MSC_GDPS_GeopotentialHeight_IsbL-0750_LatLon0.15_PT210H.grib2 2026-04-12 17:00 682K
20260412T12Z_MSC_GDPS_GeopotentialHeight_IsbL-0800_LatLon0.15_PT210H.grib2 2026-04-12 17:00 698K
20260412T12Z_MSC_GDPS_GeopotentialHeight_IsbL-0850_LatLon0.15_PT210H.grib2 2026-04-12 17:00 705K
20260412T12Z_MSC_GDPS_GeopotentialHeight_IsbL-0875_LatLon0.15_PT210H.grib2 2026-04-12 17:00 710K
20260412T12Z_MSC_GDPS_GeopotentialHeight_IsbL-0900_LatLon0.15_PT210H.grib2 2026-04-12 17:00 719K
20260412T12Z_MSC_GDPS_GeopotentialHeight_IsbL-0925_LatLon0.15_PT210H.grib2 2026-04-12 17:00 730K
20260412T12Z_MSC_GDPS_GeopotentialHeight_IsbL-0950_LatLon0.15_PT210H.grib2 2026-04-12 17:00 736K
20260412T12Z_MSC_GDPS_GeopotentialHeight_IsbL-0970_LatLon0.15_PT210H.grib2 2026-04-12 17:00 746K
20260412T12Z_MSC_GDPS_GeopotentialHeight_IsbL-0985_LatLon0.15_PT210H.grib2 2026-04-12 17:00 761K
20260412T12Z_MSC_GDPS_GeopotentialHeight_IsbL-1000_LatLon0.15_PT210H.grib2 2026-04-12 17:00 783K
20260412T12Z_MSC_GDPS_GeopotentialHeight_IsbL-1015_LatLon0.15_PT210H.grib2 2026-04-12 17:00 807K
20260412T12Z_MSC_GDPS_Humidex_Sfc_LatLon0.15_PT210H.grib2 2026-04-12 17:00 5.3M
20260412T12Z_MSC_GDPS_IcePellets-Accum12h_Sfc_LatLon0.15_PT210H.grib2 2026-04-12 17:00 34K
20260412T12Z_MSC_GDPS_IcePellets-Accum24h_Sfc_LatLon0.15_PT210H.grib2 2026-04-12 17:00 61K
20260412T12Z_MSC_GDPS_IcePellets-Accum6h_Sfc_LatLon0.15_PT210H.grib2 2026-04-12 17:00 22K
20260412T12Z_MSC_GDPS_IcePellets-Accum_Sfc_LatLon0.15_PT210H.grib2 2026-04-12 17:00 250K
20260412T12Z_MSC_GDPS_KIndex_Sfc_LatLon0.15_PT210H.grib2 2026-04-12 17:00 6.5M
20260412T12Z_MSC_GDPS_LatentHeatNetFlux_Sfc_LatLon0.15_PT210H.grib2 2026-04-12 17:00 529K
20260412T12Z_MSC_GDPS_LiftedIndex-MU-VT_IsbL-0500_LatLon0.15_PT210H.grib2 2026-04-12 17:00 5.4M
20260412T12Z_MSC_GDPS_NetLongwaveRadiationFlux-Accum_Sfc_LatLon0.15_PT210H.grib2 2026-04-12 17:00 905K
20260412T12Z_MSC_GDPS_NetShortwaveRadiationFlux-Accum_Sfc_LatLon0.15_PT210H.grib2 2026-04-12 17:00 895K
20260412T12Z_MSC_GDPS_O3MixingRatio_LatLon0.15_PT210H.grib2 2026-04-12 17:07 2.3M
20260412T12Z_MSC_GDPS_O3_EAtm_LatLon0.15_PT210H.grib2 2026-04-12 17:07 2.4M
20260412T12Z_MSC_GDPS_PlanetaryBoundaryLayerHeight_Sfc_LatLon0.15_PT210H.grib2 2026-04-12 17:00 2.5M
20260412T12Z_MSC_GDPS_Precip-Accum12h_Sfc_LatLon0.15_PT210H.grib2 2026-04-12 17:00 4.0M
20260412T12Z_MSC_GDPS_Precip-Accum24h_Sfc_LatLon0.15_PT210H.grib2 2026-04-12 17:00 4.6M
20260412T12Z_MSC_GDPS_Precip-Accum6h_Sfc_LatLon0.15_PT210H.grib2 2026-04-12 17:00 3.8M
20260412T12Z_MSC_GDPS_Precip-Accum_Sfc_LatLon0.15_PT210H.grib2 2026-04-12 17:00 5.0M
20260412T12Z_MSC_GDPS_PrecipRate_Sfc_LatLon0.15_PT210H.grib2 2026-04-12 17:00 3.0M
20260412T12Z_MSC_GDPS_PrecipType-Instant_Sfc_LatLon0.15_PT210H.grib2 2026-04-12 17:00 1.5M
20260412T12Z_MSC_GDPS_Pressure_MSL_LatLon0.15_PT210H.grib2 2026-04-12 17:00 719K
20260412T12Z_MSC_GDPS_Pressure_PVU-1.5_LatLon0.15_PT210H.grib2 2026-04-12 17:00 5.7M
20260412T12Z_MSC_GDPS_Pressure_PVU-1_LatLon0.15_PT210H.grib2 2026-04-12 17:00 6.0M
20260412T12Z_MSC_GDPS_Pressure_PVU-2_LatLon0.15_PT210H.grib2 2026-04-12 17:00 5.6M
20260412T12Z_MSC_GDPS_Pressure_Sfc_LatLon0.15_PT210H.grib2 2026-04-12 17:00 1.1M
20260412T12Z_MSC_GDPS_RadiativeTemp_Sfc_LatLon0.15_PT210H.grib2 2026-04-12 17:00 675K
20260412T12Z_MSC_GDPS_Rain-Accum12h_Sfc_LatLon0.15_PT210H.grib2 2026-04-12 17:00 2.6M
20260412T12Z_MSC_GDPS_Rain-Accum24h_Sfc_LatLon0.15_PT210H.grib2 2026-04-12 17:00 3.1M
20260412T12Z_MSC_GDPS_Rain-Accum6h_Sfc_LatLon0.15_PT210H.grib2 2026-04-12 17:00 2.3M
20260412T12Z_MSC_GDPS_Rain-Accum_Sfc_LatLon0.15_PT210H.grib2 2026-04-12 17:00 4.1M
20260412T12Z_MSC_GDPS_RelativeHumidity_AGL-2m_LatLon0.15_PT210H.grib2 2026-04-12 17:00 1.0M
20260412T12Z_MSC_GDPS_RelativeHumidity_IsbL-0010_LatLon0.15_PT210H.grib2 2026-04-12 17:00 214K
20260412T12Z_MSC_GDPS_RelativeHumidity_IsbL-0020_LatLon0.15_PT210H.grib2 2026-04-12 17:00 353K
20260412T12Z_MSC_GDPS_RelativeHumidity_IsbL-0030_LatLon0.15_PT210H.grib2 2026-04-12 17:00 412K
20260412T12Z_MSC_GDPS_RelativeHumidity_IsbL-0050_LatLon0.15_PT210H.grib2 2026-04-12 17:00 407K
20260412T12Z_MSC_GDPS_RelativeHumidity_IsbL-0100_LatLon0.15_PT210H.grib2 2026-04-12 17:00 473K
20260412T12Z_MSC_GDPS_RelativeHumidity_IsbL-0150_LatLon0.15_PT210H.grib2 2026-04-12 17:00 650K
20260412T12Z_MSC_GDPS_RelativeHumidity_IsbL-0175_LatLon0.15_PT210H.grib2 2026-04-12 17:00 786K
20260412T12Z_MSC_GDPS_RelativeHumidity_IsbL-0200_LatLon0.15_PT210H.grib2 2026-04-12 17:00 690K
20260412T12Z_MSC_GDPS_RelativeHumidity_IsbL-0225_LatLon0.15_PT210H.grib2 2026-04-12 17:00 779K
20260412T12Z_MSC_GDPS_RelativeHumidity_IsbL-0250_LatLon0.15_PT210H.grib2 2026-04-12 17:00 861K
20260412T12Z_MSC_GDPS_RelativeHumidity_IsbL-0275_LatLon0.15_PT210H.grib2 2026-04-12 17:00 884K
20260412T12Z_MSC_GDPS_RelativeHumidity_IsbL-0300_LatLon0.15_PT210H.grib2 2026-04-12 17:00 926K
20260412T12Z_MSC_GDPS_RelativeHumidity_IsbL-0350_LatLon0.15_PT210H.grib2 2026-04-12 17:00 949K
20260412T12Z_MSC_GDPS_RelativeHumidity_IsbL-0400_LatLon0.15_PT210H.grib2 2026-04-12 17:00 1.0M
20260412T12Z_MSC_GDPS_RelativeHumidity_IsbL-0450_LatLon0.15_PT210H.grib2 2026-04-12 17:00 1.0M
20260412T12Z_MSC_GDPS_RelativeHumidity_IsbL-0500_LatLon0.15_PT210H.grib2 2026-04-12 17:00 1.0M
20260412T12Z_MSC_GDPS_RelativeHumidity_IsbL-0550_LatLon0.15_PT210H.grib2 2026-04-12 17:00 1.0M
20260412T12Z_MSC_GDPS_RelativeHumidity_IsbL-0600_LatLon0.15_PT210H.grib2 2026-04-12 17:00 1.0M
20260412T12Z_MSC_GDPS_RelativeHumidity_IsbL-0650_LatLon0.15_PT210H.grib2 2026-04-12 17:00 1.1M
20260412T12Z_MSC_GDPS_RelativeHumidity_IsbL-0700_LatLon0.15_PT210H.grib2 2026-04-12 17:00 1.1M
20260412T12Z_MSC_GDPS_RelativeHumidity_IsbL-0750_LatLon0.15_PT210H.grib2 2026-04-12 17:00 1.1M
20260412T12Z_MSC_GDPS_RelativeHumidity_IsbL-0800_LatLon0.15_PT210H.grib2 2026-04-12 17:00 1.2M
20260412T12Z_MSC_GDPS_RelativeHumidity_IsbL-0850_LatLon0.15_PT210H.grib2 2026-04-12 17:00 1.3M
20260412T12Z_MSC_GDPS_RelativeHumidity_IsbL-0875_LatLon0.15_PT210H.grib2 2026-04-12 17:00 1.3M
20260412T12Z_MSC_GDPS_RelativeHumidity_IsbL-0900_LatLon0.15_PT210H.grib2 2026-04-12 17:00 1.2M
20260412T12Z_MSC_GDPS_RelativeHumidity_IsbL-0925_LatLon0.15_PT210H.grib2 2026-04-12 17:00 1.2M
20260412T12Z_MSC_GDPS_RelativeHumidity_IsbL-0950_LatLon0.15_PT210H.grib2 2026-04-12 17:00 1.2M
20260412T12Z_MSC_GDPS_RelativeHumidity_IsbL-0970_LatLon0.15_PT210H.grib2 2026-04-12 17:00 1.2M
20260412T12Z_MSC_GDPS_RelativeHumidity_IsbL-0985_LatLon0.15_PT210H.grib2 2026-04-12 17:00 1.2M
20260412T12Z_MSC_GDPS_RelativeHumidity_IsbL-1000_LatLon0.15_PT210H.grib2 2026-04-12 17:00 1.1M
20260412T12Z_MSC_GDPS_RelativeHumidity_IsbL-1015_LatLon0.15_PT210H.grib2 2026-04-12 17:00 1.0M
20260412T12Z_MSC_GDPS_RelativeVorticity_IsbL-0200_LatLon0.15_PT210H.grib2 2026-04-12 17:00 1.5M
20260412T12Z_MSC_GDPS_RelativeVorticity_IsbL-0250_LatLon0.15_PT210H.grib2 2026-04-12 17:00 1.6M
20260412T12Z_MSC_GDPS_RelativeVorticity_IsbL-0500_LatLon0.15_PT210H.grib2 2026-04-12 17:00 1.5M
20260412T12Z_MSC_GDPS_RelativeVorticity_IsbL-0700_LatLon0.15_PT210H.grib2 2026-04-12 17:00 1.3M
20260412T12Z_MSC_GDPS_RelativeVorticity_IsbL-0850_LatLon0.15_PT210H.grib2 2026-04-12 17:00 1.6M
20260412T12Z_MSC_GDPS_Runoff-Accum_Sfc_LatLon0.15_PT210H.grib2 2026-04-12 17:00 112K
20260412T12Z_MSC_GDPS_SensibleHeatNetFlux_Sfc_LatLon0.15_PT210H.grib2 2026-04-12 17:00 471K
20260412T12Z_MSC_GDPS_ShowalterIndex_IsbL-0500_LatLon0.15_PT210H.grib2 2026-04-12 17:00 6.2M
20260412T12Z_MSC_GDPS_Snow-Accum12h_Sfc_LatLon0.15_PT210H.grib2 2026-04-12 17:00 1.4M
20260412T12Z_MSC_GDPS_Snow-Accum24h_Sfc_LatLon0.15_PT210H.grib2 2026-04-12 17:00 1.6M
20260412T12Z_MSC_GDPS_Snow-Accum6h_Sfc_LatLon0.15_PT210H.grib2 2026-04-12 17:00 1.4M
20260412T12Z_MSC_GDPS_Snow-Accum_Sfc_LatLon0.15_PT210H.grib2 2026-04-12 17:00 1.9M
20260412T12Z_MSC_GDPS_SnowDensity_Sfc_LatLon0.15_PT210H.grib2 2026-04-12 17:00 272K
20260412T12Z_MSC_GDPS_SnowDepth_Sfc_LatLon0.15_PT210H.grib2 2026-04-12 17:00 1.8M
20260412T12Z_MSC_GDPS_SoilTemp_DBS-0to10cm_LatLon0.15_PT210H.grib2 2026-04-12 17:00 510K
20260412T12Z_MSC_GDPS_SoilTemp_Sfc_LatLon0.15_PT210H.grib2 2026-04-12 17:00 579K
20260412T12Z_MSC_GDPS_SoilVolumetricIceContent_Sfc_LatLon0.15_PT210H.grib2 2026-04-12 17:00 222K
20260412T12Z_MSC_GDPS_SoilVolumetricWaterContent_DBS-0to10cm_LatLon0.15_PT210H.grib2 2026-04-12 17:00 554K
20260412T12Z_MSC_GDPS_SoilVolumetricWaterContent_DBS-0to1cm_LatLon0.15_PT210H.grib2 2026-04-12 17:00 651K
20260412T12Z_MSC_GDPS_SpecificHumidity_AGL-120m_LatLon0.15_PT210H.grib2 2026-04-12 17:00 1.1M
20260412T12Z_MSC_GDPS_SpecificHumidity_AGL-2m_LatLon0.15_PT210H.grib2 2026-04-12 17:00 1.2M
20260412T12Z_MSC_GDPS_SpecificHumidity_AGL-40m_LatLon0.15_PT210H.grib2 2026-04-12 17:00 1.1M
20260412T12Z_MSC_GDPS_SpecificHumidity_AGL-80m_LatLon0.15_PT210H.grib2 2026-04-12 17:00 1.1M
20260412T12Z_MSC_GDPS_SpecificHumidity_IsbL-0001_LatLon0.15_PT210H.grib2 2026-04-12 17:00 1.0M
20260412T12Z_MSC_GDPS_SpecificHumidity_IsbL-0005_LatLon0.15_PT210H.grib2 2026-04-12 17:00 1.0M
20260412T12Z_MSC_GDPS_SpecificHumidity_IsbL-0010_LatLon0.15_PT210H.grib2 2026-04-12 17:00 1.1M
20260412T12Z_MSC_GDPS_SpecificHumidity_IsbL-0020_LatLon0.15_PT210H.grib2 2026-04-12 17:00 1.5M
20260412T12Z_MSC_GDPS_SpecificHumidity_IsbL-0030_LatLon0.15_PT210H.grib2 2026-04-12 17:00 1.4M
20260412T12Z_MSC_GDPS_SpecificHumidity_IsbL-0050_LatLon0.15_PT210H.grib2 2026-04-12 17:00 1.2M
20260412T12Z_MSC_GDPS_SpecificHumidity_IsbL-0100_LatLon0.15_PT210H.grib2 2026-04-12 17:00 1.0M
20260412T12Z_MSC_GDPS_SpecificHumidity_IsbL-0150_LatLon0.15_PT210H.grib2 2026-04-12 17:00 1.3M
20260412T12Z_MSC_GDPS_SpecificHumidity_IsbL-0175_LatLon0.15_PT210H.grib2 2026-04-12 17:00 1.2M
20260412T12Z_MSC_GDPS_SpecificHumidity_IsbL-0200_LatLon0.15_PT210H.grib2 2026-04-12 17:00 1.3M
20260412T12Z_MSC_GDPS_SpecificHumidity_IsbL-0225_LatLon0.15_PT210H.grib2 2026-04-12 17:00 1.3M
20260412T12Z_MSC_GDPS_SpecificHumidity_IsbL-0250_LatLon0.15_PT210H.grib2 2026-04-12 17:00 1.4M
20260412T12Z_MSC_GDPS_SpecificHumidity_IsbL-0275_LatLon0.15_PT210H.grib2 2026-04-12 17:00 1.3M
20260412T12Z_MSC_GDPS_SpecificHumidity_IsbL-0300_LatLon0.15_PT210H.grib2 2026-04-12 17:00 1.2M
20260412T12Z_MSC_GDPS_SpecificHumidity_IsbL-0350_LatLon0.15_PT210H.grib2 2026-04-12 17:00 1.5M
20260412T12Z_MSC_GDPS_SpecificHumidity_IsbL-0400_LatLon0.15_PT210H.grib2 2026-04-12 17:00 1.4M
20260412T12Z_MSC_GDPS_SpecificHumidity_IsbL-0450_LatLon0.15_PT210H.grib2 2026-04-12 17:00 1.6M
20260412T12Z_MSC_GDPS_SpecificHumidity_IsbL-0500_LatLon0.15_PT210H.grib2 2026-04-12 17:00 1.4M
20260412T12Z_MSC_GDPS_SpecificHumidity_IsbL-0550_LatLon0.15_PT210H.grib2 2026-04-12 17:00 1.6M
20260412T12Z_MSC_GDPS_SpecificHumidity_IsbL-0600_LatLon0.15_PT210H.grib2 2026-04-12 17:00 1.7M
20260412T12Z_MSC_GDPS_SpecificHumidity_IsbL-0650_LatLon0.15_PT210H.grib2 2026-04-12 17:00 1.5M
20260412T12Z_MSC_GDPS_SpecificHumidity_IsbL-0700_LatLon0.15_PT210H.grib2 2026-04-12 17:00 1.6M
20260412T12Z_MSC_GDPS_SpecificHumidity_IsbL-0750_LatLon0.15_PT210H.grib2 2026-04-12 17:00 1.7M
20260412T12Z_MSC_GDPS_SpecificHumidity_IsbL-0800_LatLon0.15_PT210H.grib2 2026-04-12 17:00 1.9M
20260412T12Z_MSC_GDPS_SpecificHumidity_IsbL-0850_LatLon0.15_PT210H.grib2 2026-04-12 17:00 1.9M
20260412T12Z_MSC_GDPS_SpecificHumidity_IsbL-0875_LatLon0.15_PT210H.grib2 2026-04-12 17:00 1.9M
20260412T12Z_MSC_GDPS_SpecificHumidity_IsbL-0900_LatLon0.15_PT210H.grib2 2026-04-12 17:00 1.9M
20260412T12Z_MSC_GDPS_SpecificHumidity_IsbL-0925_LatLon0.15_PT210H.grib2 2026-04-12 17:00 1.6M
20260412T12Z_MSC_GDPS_SpecificHumidity_IsbL-0950_LatLon0.15_PT210H.grib2 2026-04-12 17:00 1.5M
20260412T12Z_MSC_GDPS_SpecificHumidity_IsbL-0970_LatLon0.15_PT210H.grib2 2026-04-12 17:00 1.5M
20260412T12Z_MSC_GDPS_SpecificHumidity_IsbL-0985_LatLon0.15_PT210H.grib2 2026-04-12 17:00 1.5M
20260412T12Z_MSC_GDPS_SpecificHumidity_IsbL-1000_LatLon0.15_PT210H.grib2 2026-04-12 17:00 1.5M
20260412T12Z_MSC_GDPS_SpecificHumidity_IsbL-1015_LatLon0.15_PT210H.grib2 2026-04-12 17:00 1.4M
20260412T12Z_MSC_GDPS_SpecificHumidity_Sfc_LatLon0.15_PT210H.grib2 2026-04-12 17:00 666K
20260412T12Z_MSC_GDPS_Thickness_IsbL-0850to0700_LatLon0.15_PT210H.grib2 2026-04-12 17:00 472K
20260412T12Z_MSC_GDPS_Thickness_IsbL-1000to0500_LatLon0.15_PT210H.grib2 2026-04-12 17:00 378K
20260412T12Z_MSC_GDPS_Thickness_IsbL-1000to0850_LatLon0.15_PT210H.grib2 2026-04-12 17:00 491K
20260412T12Z_MSC_GDPS_TotalCloudCover_Sfc_LatLon0.15_PT210H.grib2 2026-04-12 17:00 822K
20260412T12Z_MSC_GDPS_TotalTotalsIndex_Sfc_LatLon0.15_PT210H.grib2 2026-04-12 17:00 6.2M
20260412T12Z_MSC_GDPS_UVIndex-ClearSky_Sfc_LatLon0.15_PT210H.grib2 2026-04-12 17:07 1.0M
20260412T12Z_MSC_GDPS_UVIndex_Sfc_LatLon0.15_PT210H.grib2 2026-04-12 17:07 1.4M
20260412T12Z_MSC_GDPS_UpwardLongwaveRadiationFlux_NTAtm_LatLon0.15_PT210H.grib2 2026-04-12 17:00 823K
20260412T12Z_MSC_GDPS_VerticalVelocity_IsbL-0200_LatLon0.15_PT210H.grib2 2026-04-12 17:00 1.2M
20260412T12Z_MSC_GDPS_VerticalVelocity_IsbL-0250_LatLon0.15_PT210H.grib2 2026-04-12 17:00 1.0M
20260412T12Z_MSC_GDPS_VerticalVelocity_IsbL-0500_LatLon0.15_PT210H.grib2 2026-04-12 17:00 1.0M
20260412T12Z_MSC_GDPS_VerticalVelocity_IsbL-0600_LatLon0.15_PT210H.grib2 2026-04-12 17:00 1.0M
20260412T12Z_MSC_GDPS_VerticalVelocity_IsbL-0700_LatLon0.15_PT210H.grib2 2026-04-12 17:00 1.1M
20260412T12Z_MSC_GDPS_VerticalVelocity_IsbL-0850_LatLon0.15_PT210H.grib2 2026-04-12 17:00 1.3M
20260412T12Z_MSC_GDPS_WindChill_Sfc_LatLon0.15_PT210H.grib2 2026-04-12 17:00 5.3M
20260412T12Z_MSC_GDPS_WindDir_AGL-10m_LatLon0.15_PT210H.grib2 2026-04-12 17:00 1.3M
20260412T12Z_MSC_GDPS_WindDir_AGL-120m_LatLon0.15_PT210H.grib2 2026-04-12 17:00 1.4M
20260412T12Z_MSC_GDPS_WindDir_AGL-40m_LatLon0.15_PT210H.grib2 2026-04-12 17:00 1.4M
20260412T12Z_MSC_GDPS_WindDir_AGL-80m_LatLon0.15_PT210H.grib2 2026-04-12 17:00 1.4M
20260412T12Z_MSC_GDPS_WindDir_IsbL-0001_LatLon0.15_PT210H.grib2 2026-04-12 17:00 652K
20260412T12Z_MSC_GDPS_WindDir_IsbL-0005_LatLon0.15_PT210H.grib2 2026-04-12 17:00 800K
20260412T12Z_MSC_GDPS_WindDir_IsbL-0010_LatLon0.15_PT210H.grib2 2026-04-12 17:00 882K
20260412T12Z_MSC_GDPS_WindDir_IsbL-0020_LatLon0.15_PT210H.grib2 2026-04-12 17:00 927K
20260412T12Z_MSC_GDPS_WindDir_IsbL-0030_LatLon0.15_PT210H.grib2 2026-04-12 17:00 903K
20260412T12Z_MSC_GDPS_WindDir_IsbL-0050_LatLon0.15_PT210H.grib2 2026-04-12 17:00 950K
20260412T12Z_MSC_GDPS_WindDir_IsbL-0100_LatLon0.15_PT210H.grib2 2026-04-12 17:00 1.0M
20260412T12Z_MSC_GDPS_WindDir_IsbL-0150_LatLon0.15_PT210H.grib2 2026-04-12 17:00 1.0M
20260412T12Z_MSC_GDPS_WindDir_IsbL-0175_LatLon0.15_PT210H.grib2 2026-04-12 17:00 1.1M
20260412T12Z_MSC_GDPS_WindDir_IsbL-0200_LatLon0.15_PT210H.grib2 2026-04-12 17:00 1.1M
20260412T12Z_MSC_GDPS_WindDir_IsbL-0225_LatLon0.15_PT210H.grib2 2026-04-12 17:00 1.1M
20260412T12Z_MSC_GDPS_WindDir_IsbL-0250_LatLon0.15_PT210H.grib2 2026-04-12 17:00 1.1M
20260412T12Z_MSC_GDPS_WindDir_IsbL-0275_LatLon0.15_PT210H.grib2 2026-04-12 17:00 1.2M
20260412T12Z_MSC_GDPS_WindDir_IsbL-0300_LatLon0.15_PT210H.grib2 2026-04-12 17:00 1.2M
20260412T12Z_MSC_GDPS_WindDir_IsbL-0350_LatLon0.15_PT210H.grib2 2026-04-12 17:00 1.2M
20260412T12Z_MSC_GDPS_WindDir_IsbL-0400_LatLon0.15_PT210H.grib2 2026-04-12 17:00 1.2M
20260412T12Z_MSC_GDPS_WindDir_IsbL-0450_LatLon0.15_PT210H.grib2 2026-04-12 17:00 1.3M
20260412T12Z_MSC_GDPS_WindDir_IsbL-0500_LatLon0.15_PT210H.grib2 2026-04-12 17:00 1.3M
20260412T12Z_MSC_GDPS_WindDir_IsbL-0550_LatLon0.15_PT210H.grib2 2026-04-12 17:00 1.4M
20260412T12Z_MSC_GDPS_WindDir_IsbL-0600_LatLon0.15_PT210H.grib2 2026-04-12 17:00 1.5M
20260412T12Z_MSC_GDPS_WindDir_IsbL-0650_LatLon0.15_PT210H.grib2 2026-04-12 17:00 1.5M
20260412T12Z_MSC_GDPS_WindDir_IsbL-0700_LatLon0.15_PT210H.grib2 2026-04-12 17:00 1.6M
20260412T12Z_MSC_GDPS_WindDir_IsbL-0750_LatLon0.15_PT210H.grib2 2026-04-12 17:00 1.7M
20260412T12Z_MSC_GDPS_WindDir_IsbL-0800_LatLon0.15_PT210H.grib2 2026-04-12 17:00 1.8M
20260412T12Z_MSC_GDPS_WindDir_IsbL-0850_LatLon0.15_PT210H.grib2 2026-04-12 17:00 2.0M
20260412T12Z_MSC_GDPS_WindDir_IsbL-0875_LatLon0.15_PT210H.grib2 2026-04-12 17:00 2.0M
20260412T12Z_MSC_GDPS_WindDir_IsbL-0900_LatLon0.15_PT210H.grib2 2026-04-12 17:00 2.0M
20260412T12Z_MSC_GDPS_WindDir_IsbL-0925_LatLon0.15_PT210H.grib2 2026-04-12 17:00 2.0M
20260412T12Z_MSC_GDPS_WindDir_IsbL-0950_LatLon0.15_PT210H.grib2 2026-04-12 17:00 2.0M
20260412T12Z_MSC_GDPS_WindDir_IsbL-0970_LatLon0.15_PT210H.grib2 2026-04-12 17:00 2.0M
20260412T12Z_MSC_GDPS_WindDir_IsbL-0985_LatLon0.15_PT210H.grib2 2026-04-12 17:00 2.1M
20260412T12Z_MSC_GDPS_WindDir_IsbL-1000_LatLon0.15_PT210H.grib2 2026-04-12 17:00 2.1M
20260412T12Z_MSC_GDPS_WindDir_IsbL-1015_LatLon0.15_PT210H.grib2 2026-04-12 17:00 2.1M
20260412T12Z_MSC_GDPS_WindGust-Max_AGL-10m_LatLon0.15_PT210H.grib2 2026-04-12 17:00 1.8M
20260412T12Z_MSC_GDPS_WindGust-Min_AGL-10m_LatLon0.15_PT210H.grib2 2026-04-12 17:00 2.1M
20260412T12Z_MSC_GDPS_WindGust_AGL-10m_LatLon0.15_PT210H.grib2 2026-04-12 17:00 2.1M
20260412T12Z_MSC_GDPS_WindSpeed_AGL-10m_LatLon0.15_PT210H.grib2 2026-04-12 17:00 1.1M
20260412T12Z_MSC_GDPS_WindSpeed_AGL-120m_LatLon0.15_PT210H.grib2 2026-04-12 17:00 1.2M
20260412T12Z_MSC_GDPS_WindSpeed_AGL-40m_LatLon0.15_PT210H.grib2 2026-04-12 17:00 1.2M
20260412T12Z_MSC_GDPS_WindSpeed_AGL-80m_LatLon0.15_PT210H.grib2 2026-04-12 17:00 1.2M
20260412T12Z_MSC_GDPS_WindSpeed_IsbL-0001_LatLon0.15_PT210H.grib2 2026-04-12 17:00 637K
20260412T12Z_MSC_GDPS_WindSpeed_IsbL-0005_LatLon0.15_PT210H.grib2 2026-04-12 17:00 603K
20260412T12Z_MSC_GDPS_WindSpeed_IsbL-0010_LatLon0.15_PT210H.grib2 2026-04-12 17:00 620K
20260412T12Z_MSC_GDPS_WindSpeed_IsbL-0020_LatLon0.15_PT210H.grib2 2026-04-12 17:00 849K
20260412T12Z_MSC_GDPS_WindSpeed_IsbL-0030_LatLon0.15_PT210H.grib2 2026-04-12 17:00 924K
20260412T12Z_MSC_GDPS_WindSpeed_IsbL-0050_LatLon0.15_PT210H.grib2 2026-04-12 17:00 1.0M
20260412T12Z_MSC_GDPS_WindSpeed_IsbL-0100_LatLon0.15_PT210H.grib2 2026-04-12 17:00 1.1M
20260412T12Z_MSC_GDPS_WindSpeed_IsbL-0150_LatLon0.15_PT210H.grib2 2026-04-12 17:00 1.0M
20260412T12Z_MSC_GDPS_WindSpeed_IsbL-0175_LatLon0.15_PT210H.grib2 2026-04-12 17:00 1.0M
20260412T12Z_MSC_GDPS_WindSpeed_IsbL-0200_LatLon0.15_PT210H.grib2 2026-04-12 17:00 1.0M
20260412T12Z_MSC_GDPS_WindSpeed_IsbL-0225_LatLon0.15_PT210H.grib2 2026-04-12 17:00 1.1M
20260412T12Z_MSC_GDPS_WindSpeed_IsbL-0250_LatLon0.15_PT210H.grib2 2026-04-12 17:00 1.1M
20260412T12Z_MSC_GDPS_WindSpeed_IsbL-0275_LatLon0.15_PT210H.grib2 2026-04-12 17:00 1.1M
20260412T12Z_MSC_GDPS_WindSpeed_IsbL-0300_LatLon0.15_PT210H.grib2 2026-04-12 17:00 1.1M
20260412T12Z_MSC_GDPS_WindSpeed_IsbL-0350_LatLon0.15_PT210H.grib2 2026-04-12 17:00 1.1M
20260412T12Z_MSC_GDPS_WindSpeed_IsbL-0400_LatLon0.15_PT210H.grib2 2026-04-12 17:00 1.1M
20260412T12Z_MSC_GDPS_WindSpeed_IsbL-0450_LatLon0.15_PT210H.grib2 2026-04-12 17:00 1.1M
20260412T12Z_MSC_GDPS_WindSpeed_IsbL-0500_LatLon0.15_PT210H.grib2 2026-04-12 17:00 1.1M
20260412T12Z_MSC_GDPS_WindSpeed_IsbL-0550_LatLon0.15_PT210H.grib2 2026-04-12 17:00 1.1M
20260412T12Z_MSC_GDPS_WindSpeed_IsbL-0600_LatLon0.15_PT210H.grib2 2026-04-12 17:00 1.1M
20260412T12Z_MSC_GDPS_WindSpeed_IsbL-0650_LatLon0.15_PT210H.grib2 2026-04-12 17:00 1.1M
20260412T12Z_MSC_GDPS_WindSpeed_IsbL-0700_LatLon0.15_PT210H.grib2 2026-04-12 17:00 1.2M
20260412T12Z_MSC_GDPS_WindSpeed_IsbL-0750_LatLon0.15_PT210H.grib2 2026-04-12 17:00 1.3M
20260412T12Z_MSC_GDPS_WindSpeed_IsbL-0800_LatLon0.15_PT210H.grib2 2026-04-12 17:00 1.3M
20260412T12Z_MSC_GDPS_WindSpeed_IsbL-0850_LatLon0.15_PT210H.grib2 2026-04-12 17:00 1.4M
20260412T12Z_MSC_GDPS_WindSpeed_IsbL-0875_LatLon0.15_PT210H.grib2 2026-04-12 17:00 1.8M
20260412T12Z_MSC_GDPS_WindSpeed_IsbL-0900_LatLon0.15_PT210H.grib2 2026-04-12 17:00 1.8M
20260412T12Z_MSC_GDPS_WindSpeed_IsbL-0925_LatLon0.15_PT210H.grib2 2026-04-12 17:00 1.8M
20260412T12Z_MSC_GDPS_WindSpeed_IsbL-0950_LatLon0.15_PT210H.grib2 2026-04-12 17:00 1.9M
20260412T12Z_MSC_GDPS_WindSpeed_IsbL-0970_LatLon0.15_PT210H.grib2 2026-04-12 17:00 1.9M
20260412T12Z_MSC_GDPS_WindSpeed_IsbL-0985_LatLon0.15_PT210H.grib2 2026-04-12 17:00 1.8M
20260412T12Z_MSC_GDPS_WindSpeed_IsbL-1000_LatLon0.15_PT210H.grib2 2026-04-12 17:00 1.8M
20260412T12Z_MSC_GDPS_WindSpeed_IsbL-1015_LatLon0.15_PT210H.grib2 2026-04-12 17:00 1.8M
20260412T12Z_MSC_GDPS_WindU_AGL-10m_LatLon0.15_PT210H.grib2 2026-04-12 17:00 1.3M
20260412T12Z_MSC_GDPS_WindU_AGL-120m_LatLon0.15_PT210H.grib2 2026-04-12 17:00 1.0M
20260412T12Z_MSC_GDPS_WindU_AGL-40m_LatLon0.15_PT210H.grib2 2026-04-12 17:00 967K
20260412T12Z_MSC_GDPS_WindU_AGL-80m_LatLon0.15_PT210H.grib2 2026-04-12 17:00 1.0M
20260412T12Z_MSC_GDPS_WindU_IsbL-0001_LatLon0.15_PT210H.grib2 2026-04-12 17:00 636K
20260412T12Z_MSC_GDPS_WindU_IsbL-0005_LatLon0.15_PT210H.grib2 2026-04-12 17:00 679K
20260412T12Z_MSC_GDPS_WindU_IsbL-0010_LatLon0.15_PT210H.grib2 2026-04-12 17:00 691K
20260412T12Z_MSC_GDPS_WindU_IsbL-0020_LatLon0.15_PT210H.grib2 2026-04-12 17:00 649K
20260412T12Z_MSC_GDPS_WindU_IsbL-0030_LatLon0.15_PT210H.grib2 2026-04-12 17:00 652K
20260412T12Z_MSC_GDPS_WindU_IsbL-0050_LatLon0.15_PT210H.grib2 2026-04-12 17:00 697K
20260412T12Z_MSC_GDPS_WindU_IsbL-0100_LatLon0.15_PT210H.grib2 2026-04-12 17:00 852K
20260412T12Z_MSC_GDPS_WindU_IsbL-0150_LatLon0.15_PT210H.grib2 2026-04-12 17:00 1.0M
20260412T12Z_MSC_GDPS_WindU_IsbL-0175_LatLon0.15_PT210H.grib2 2026-04-12 17:00 1.0M
20260412T12Z_MSC_GDPS_WindU_IsbL-0200_LatLon0.15_PT210H.grib2 2026-04-12 17:00 838K
20260412T12Z_MSC_GDPS_WindU_IsbL-0225_LatLon0.15_PT210H.grib2 2026-04-12 17:00 846K
20260412T12Z_MSC_GDPS_WindU_IsbL-0250_LatLon0.15_PT210H.grib2 2026-04-12 17:00 844K
20260412T12Z_MSC_GDPS_WindU_IsbL-0275_LatLon0.15_PT210H.grib2 2026-04-12 17:00 871K
20260412T12Z_MSC_GDPS_WindU_IsbL-0300_LatLon0.15_PT210H.grib2 2026-04-12 17:00 863K
20260412T12Z_MSC_GDPS_WindU_IsbL-0350_LatLon0.15_PT210H.grib2 2026-04-12 17:00 880K
20260412T12Z_MSC_GDPS_WindU_IsbL-0400_LatLon0.15_PT210H.grib2 2026-04-12 17:00 881K
20260412T12Z_MSC_GDPS_WindU_IsbL-0450_LatLon0.15_PT210H.grib2 2026-04-12 17:00 882K
20260412T12Z_MSC_GDPS_WindU_IsbL-0500_LatLon0.15_PT210H.grib2 2026-04-12 17:00 889K
20260412T12Z_MSC_GDPS_WindU_IsbL-0550_LatLon0.15_PT210H.grib2 2026-04-12 17:00 1.1M
20260412T12Z_MSC_GDPS_WindU_IsbL-0600_LatLon0.15_PT210H.grib2 2026-04-12 17:00 1.1M
20260412T12Z_MSC_GDPS_WindU_IsbL-0650_LatLon0.15_PT210H.grib2 2026-04-12 17:00 1.2M
20260412T12Z_MSC_GDPS_WindU_IsbL-0700_LatLon0.15_PT210H.grib2 2026-04-12 17:00 1.2M
20260412T12Z_MSC_GDPS_WindU_IsbL-0750_LatLon0.15_PT210H.grib2 2026-04-12 17:00 1.3M
20260412T12Z_MSC_GDPS_WindU_IsbL-0800_LatLon0.15_PT210H.grib2 2026-04-12 17:00 1.3M
20260412T12Z_MSC_GDPS_WindU_IsbL-0850_LatLon0.15_PT210H.grib2 2026-04-12 17:00 1.4M
20260412T12Z_MSC_GDPS_WindU_IsbL-0875_LatLon0.15_PT210H.grib2 2026-04-12 17:00 1.4M
20260412T12Z_MSC_GDPS_WindU_IsbL-0900_LatLon0.15_PT210H.grib2 2026-04-12 17:00 1.5M
20260412T12Z_MSC_GDPS_WindU_IsbL-0925_LatLon0.15_PT210H.grib2 2026-04-12 17:00 1.5M
20260412T12Z_MSC_GDPS_WindU_IsbL-0950_LatLon0.15_PT210H.grib2 2026-04-12 17:00 1.4M
20260412T12Z_MSC_GDPS_WindU_IsbL-0970_LatLon0.15_PT210H.grib2 2026-04-12 17:00 1.4M
20260412T12Z_MSC_GDPS_WindU_IsbL-0985_LatLon0.15_PT210H.grib2 2026-04-12 17:00 1.4M
20260412T12Z_MSC_GDPS_WindU_IsbL-1000_LatLon0.15_PT210H.grib2 2026-04-12 17:00 1.4M
20260412T12Z_MSC_GDPS_WindU_IsbL-1015_LatLon0.15_PT210H.grib2 2026-04-12 17:00 1.3M
20260412T12Z_MSC_GDPS_WindV_AGL-10m_LatLon0.15_PT210H.grib2 2026-04-12 17:00 1.3M
20260412T12Z_MSC_GDPS_WindV_AGL-120m_LatLon0.15_PT210H.grib2 2026-04-12 17:00 1.0M
20260412T12Z_MSC_GDPS_WindV_AGL-40m_LatLon0.15_PT210H.grib2 2026-04-12 17:00 964K
20260412T12Z_MSC_GDPS_WindV_AGL-80m_LatLon0.15_PT210H.grib2 2026-04-12 17:00 969K
20260412T12Z_MSC_GDPS_WindV_IsbL-0001_LatLon0.15_PT210H.grib2 2026-04-12 17:00 691K
20260412T12Z_MSC_GDPS_WindV_IsbL-0005_LatLon0.15_PT210H.grib2 2026-04-12 17:00 767K
20260412T12Z_MSC_GDPS_WindV_IsbL-0010_LatLon0.15_PT210H.grib2 2026-04-12 17:00 793K
20260412T12Z_MSC_GDPS_WindV_IsbL-0020_LatLon0.15_PT210H.grib2 2026-04-12 17:00 845K
20260412T12Z_MSC_GDPS_WindV_IsbL-0030_LatLon0.15_PT210H.grib2 2026-04-12 17:00 848K
20260412T12Z_MSC_GDPS_WindV_IsbL-0050_LatLon0.15_PT210H.grib2 2026-04-12 17:00 1.0M
20260412T12Z_MSC_GDPS_WindV_IsbL-0100_LatLon0.15_PT210H.grib2 2026-04-12 17:00 841K
20260412T12Z_MSC_GDPS_WindV_IsbL-0150_LatLon0.15_PT210H.grib2 2026-04-12 17:00 1.0M
20260412T12Z_MSC_GDPS_WindV_IsbL-0175_LatLon0.15_PT210H.grib2 2026-04-12 17:00 1.0M
20260412T12Z_MSC_GDPS_WindV_IsbL-0200_LatLon0.15_PT210H.grib2 2026-04-12 17:00 836K
20260412T12Z_MSC_GDPS_WindV_IsbL-0225_LatLon0.15_PT210H.grib2 2026-04-12 17:00 841K
20260412T12Z_MSC_GDPS_WindV_IsbL-0250_LatLon0.15_PT210H.grib2 2026-04-12 17:00 840K
20260412T12Z_MSC_GDPS_WindV_IsbL-0275_LatLon0.15_PT210H.grib2 2026-04-12 17:00 866K
20260412T12Z_MSC_GDPS_WindV_IsbL-0300_LatLon0.15_PT210H.grib2 2026-04-12 17:00 855K
20260412T12Z_MSC_GDPS_WindV_IsbL-0350_LatLon0.15_PT210H.grib2 2026-04-12 17:00 928K
20260412T12Z_MSC_GDPS_WindV_IsbL-0400_LatLon0.15_PT210H.grib2 2026-04-12 17:00 871K
20260412T12Z_MSC_GDPS_WindV_IsbL-0450_LatLon0.15_PT210H.grib2 2026-04-12 17:00 873K
20260412T12Z_MSC_GDPS_WindV_IsbL-0500_LatLon0.15_PT210H.grib2 2026-04-12 17:00 877K
20260412T12Z_MSC_GDPS_WindV_IsbL-0550_LatLon0.15_PT210H.grib2 2026-04-12 17:00 881K
20260412T12Z_MSC_GDPS_WindV_IsbL-0600_LatLon0.15_PT210H.grib2 2026-04-12 17:00 1.1M
20260412T12Z_MSC_GDPS_WindV_IsbL-0650_LatLon0.15_PT210H.grib2 2026-04-12 17:00 1.1M
20260412T12Z_MSC_GDPS_WindV_IsbL-0700_LatLon0.15_PT210H.grib2 2026-04-12 17:00 1.2M
20260412T12Z_MSC_GDPS_WindV_IsbL-0750_LatLon0.15_PT210H.grib2 2026-04-12 17:00 1.2M
20260412T12Z_MSC_GDPS_WindV_IsbL-0800_LatLon0.15_PT210H.grib2 2026-04-12 17:00 1.3M
20260412T12Z_MSC_GDPS_WindV_IsbL-0850_LatLon0.15_PT210H.grib2 2026-04-12 17:00 1.4M
20260412T12Z_MSC_GDPS_WindV_IsbL-0875_LatLon0.15_PT210H.grib2 2026-04-12 17:00 1.4M
20260412T12Z_MSC_GDPS_WindV_IsbL-0900_LatLon0.15_PT210H.grib2 2026-04-12 17:00 1.5M
20260412T12Z_MSC_GDPS_WindV_IsbL-0925_LatLon0.15_PT210H.grib2 2026-04-12 17:00 1.5M
20260412T12Z_MSC_GDPS_WindV_IsbL-0950_LatLon0.15_PT210H.grib2 2026-04-12 17:00 1.4M
20260412T12Z_MSC_GDPS_WindV_IsbL-0970_LatLon0.15_PT210H.grib2 2026-04-12 17:00 1.4M
20260412T12Z_MSC_GDPS_WindV_IsbL-0985_LatLon0.15_PT210H.grib2 2026-04-12 17:00 1.4M
20260412T12Z_MSC_GDPS_WindV_IsbL-1000_LatLon0.15_PT210H.grib2 2026-04-12 17:00 1.4M
20260412T12Z_MSC_GDPS_WindV_IsbL-1015_LatLon0.15_PT210H.grib2 2026-04-12 17:00 1.3M